CZ-3B DEB, 40164

Orbit data source: Space-Track

CZ-3B DEB, 40164 is space debris in HEO originally from a launch on Sat, 04 Sep 2010 UTC launched from the Xichang Space Center, China (XSC). Debris objects in space refer to the collection of defunct objects orbiting the Earth. Examples of debris include non-operational satellites, rocket bodies, and fragments generated from explosions, collisions, or faulty payload assembly.

Loading next visibility...
Identifier
40164, 2010-042R
Orbit
HEO
Country
Flag of CNCN / PRC
Related business
Manufacturer
CALT
Mission
Spacecraft
Bus & Motor
Unknown
Mass
Unknown
Launch date (UTC)
2010-09-04 (16 years ago)
Launch vehicle
Unknown
Launch site
Xichang Space Center, China (XSC)
Object type
Payload
Rocket body
Debris
Shape & HBR
Unknown shape, 0.3 m
Radar Cross Section
Medium (>0.1 m² and <1 m²)

Expand to show TLE details & history
Last TLE update: 1 day ago

TLE from 1 day ago
0 CZ-3B DEB
1 40164U 10042R   26235.39931883  .00000146  00000-0  00000-0 0  9995
2 40164  26.2143 219.6857 7324829  49.2359  17.1051  1.89869161 88549
Epoch: 2026-08-23T09:35Z
TLE epoch observation values (Epoch: 2026-08-23T09:35:01.146Z)
Latitude
13.9278°
Longitude
-106.11085°
Altitude
7,760.354 km
Speed
6.474 km/s
True Right ascension
00h 37m 21s
True Declination
13° 53' 15"
Sunlit
Object was in daylight at epoch
Visualization orbit readout
Latitude
Unknown
Longitude
Unknown
Altitude
Unknown
Speed
Unknown
Apparent Right ascension
Unknown
Apparent Declination
Unknown
Sunlit
N/A
Visualization observer readout
Local Sidereal Time
00:46:29
Azimuth
Unknown
Elevation
Unknown
Doppler factor
Unknown
Orbital elements
Apogee altitude
41,355.509 km
Perigee altitude
992.537 km
Semi-major axis
27,552.16 km
Eccentricity
0.73248
Inclination
26.2143°
RAAN
219.6857°
Arg. of periapsis
49.2359°
True anomaly
97.89803°
Mean anomaly
17.1051°
Eccentric anomaly
48.57264°
Mean motion
0.47458 °/min
Orbital period
758.57 mins
BSTAR
0
Loading maneuver chart data...
Computing Atmospheric mass density...
Loading historical data...
Loading historical data...
Loading historical data...
Loading historical data...
Loading historical data...
Loading historical data...
Loading historical data...

Documentation

Showing up to 5 results
|